EW5238 Weather Reports


Display with metric or nautical units.
time (UTC)temp
F
wind
direction
speed
MPH
gust
MPH
rain 1hr
in
rain 24hr
in
rain mn
in
humidity
%
barometer
mb
20260509005812 76 190 2.0 5.0 0.00 0.00 0.00 1 1006.8
20260509005544 76 190 2.0 5.0 0.00 0.00 0.00 1 1006.7
20260509004808 76 190 3.0 5.0 0.00 0.00 0.00 1 1006.7
20260509004310 77 190 3.0 6.0 0.00 0.00 0.00 6 1006.7
20260509003805 77 190 3.0 6.0 0.00 0.00 0.00 9 1006.7
20260509003318 77 190 2.0 6.0 0.00 0.00 0.00 12 1006.7
20260509002808 77 190 2.0 5.0 0.00 0.00 0.00 14 1006.7
20260509002537 77 190 2.0 5.0 0.00 0.00 0.00 17 1006.7
20260509001808 77 190 2.0 5.0 0.00 0.00 0.00 21 1006.7
20260509001306 78 190 2.0 6.0 0.00 0.00 0.00 23 1006.8
20260509000800 78 190 3.0 6.0 0.00 0.00 0.00 27 1006.7
20260509000256 78 190 3.0 6.0 0.00 0.00 0.00 30 1006.7
20260508235801 78 190 2.0 6.0 0.00 0.00 0.00 28 1006.8
20260508235251 78 190 2.0 5.0 0.00 0.00 0.00 27 1006.8
20260508234752 78 190 3.0 7.0 0.00 0.00 0.00 28 1006.8
20260508234251 78 190 3.0 7.0 0.00 0.00 0.00 32 1006.9
20260508233747 78 190 3.0 6.0 0.00 0.00 0.00 32 1006.8
20260508233247 78 190 3.0 6.0 0.00 0.00 0.00 36 1006.7
20260508232743 78 190 3.0 6.0 0.00 0.00 0.00 37 1006.7
20260508232248 78 190 2.0 6.0 0.00 0.00 0.00 36 1006.7
20260508232015 78 190 2.0 5.0 0.00 0.00 0.00 36 1006.7
20260508231010 79 190 3.0 7.0 0.00 0.00 0.00 42 1006.7
20260508230238 79 190 3.0 7.0 0.00 0.00 0.00 47 1006.7
20260508225736 79 190 2.0 5.0 0.00 0.00 0.00 45 1006.5
20260508225235 79 190 3.0 7.0 0.00 0.00 0.00 48 1006.6
20260508224739 79 190 3.0 7.0 0.00 0.00 0.00 49 1006.6
20260508224235 80 190 3.0 6.0 0.00 0.00 0.00 47 1006.5
20260508223737 79 190 2.0 4.0 0.00 0.00 0.00 41 1006.5
20260508223236 79 190 1.0 4.0 0.00 0.00 0.00 41 1006.8
20260508221738 79 190 0.0 3.0 0.00 0.00 0.00 39 1006.7
20260508221503 79 190 0.0 0.0 0.00 0.00 0.00 38 1007.0
20260508220956 78 190 0.0 0.0 0.00 0.00 0.00 39 1007.0
20260508220455 78 190 0.0 0.0 0.00 0.00 0.00 43 1007.1
20260508215725 78 190 0.0 0.0 0.00 0.00 0.00 46 1007.1
20260508215221 78 190 0.0 0.0 0.00 0.00 0.00 46 1007.0
20260508214950 78 190 0.0 0.0 0.00 0.00 0.00 43 1007.0
20260508214210 78 190 0.0 0.0 0.00 0.00 0.00 44 1007.0
20260508213710 78 190 0.0 0.0 0.00 0.00 0.00 39 1007.2
20260508213440 78 190 0.0 0.0 0.00 0.00 0.00 41 1007.3
20260508212707 78 190 0.0 0.0 0.00 0.00 0.00 43 1007.3
20260508212206 78 190 0.0 0.0 0.00 0.00 0.00 46 1007.5
20260508211934 78 190 0.0 0.0 0.00 0.00 0.00 47 1007.6
20260508211158 78 190 0.0 0.0 0.00 0.00 0.00 49 1007.5
20260508210927 78 190 0.0 0.0 0.00 0.00 0.00 44 1007.5
20260508210155 78 190 0.0 0.0 0.00 0.00 0.00 47 1007.6
20260508205924 78 190 0.0 0.0 0.00 0.00 0.00 46 1007.7
20260508205422 78 190 0.0 0.0 0.00 0.00 0.00 45 1007.7
20260508204648 78 190 0.0 0.0 0.00 0.00 0.00 44 1007.8
20260508204151 78 190 0.0 0.0 0.00 0.00 0.00 46 1008.0
20260508203650 78 190 0.0 0.0 0.00 0.00 0.00 48 1007.9
20260508203148 78 190 0.0 0.0 0.00 0.00 0.00 46 1007.9
20260508202918 77 190 1.0 4.0 0.00 0.00 0.00 42 1007.9
20260508202143 77 190 2.0 5.0 0.00 0.00 0.00 44 1008.0
20260508201644 77 190 1.0 5.0 0.00 0.00 0.00 39 1008.0
20260508201140 76 190 1.0 4.0 0.00 0.00 0.00 36 1008.2
20260508200638 76 190 1.0 4.0 0.00 0.00 0.00 27 1008.3
20260508200138 75 190 2.0 4.0 0.00 0.00 0.00 27 1008.4
20260508195913 75 190 1.0 4.0 0.00 0.00 0.00 37 1008.5
20260508195404 75 190 1.0 3.0 0.00 0.00 0.00 39 1008.7
20260508194634 76 190 1.0 4.0 0.00 0.00 0.00 43 1008.8
20260508194129 76 190 1.0 4.0 0.00 0.00 0.00 44 1008.7
20260508193633 76 190 1.0 4.0 0.00 0.00 0.00 42 1008.8
20260508193128 76 190 2.0 4.0 0.00 0.00 0.00 46 1008.7
20260508192624 76 190 2.0 5.0 0.00 0.00 0.00 42 1008.8
20260508192120 76 190 2.0 5.0 0.00 0.00 0.00 45 1008.8
20260508191620 76 190 2.0 5.0 0.00 0.00 0.00 47 1008.9
20260508191118 76 190 1.0 3.0 0.00 0.00 0.00 42 1008.8
20260508190618 76 190 0.0 3.0 0.00 0.00 0.00 47 1008.8
20260508190350 76 190 0.0 2.0 0.00 0.00 0.00 39 1009.1
20260508185622 75 190 0.0 0.0 0.00 0.00 0.00 41 1009.1
20260508185118 76 190 0.0 2.0 0.00 0.00 0.00 48 1009.2
20260508184616 76 190 1.0 2.0 0.00 0.00 0.00 45 1009.2
20260508184115 76 190 1.0 2.0 0.00 0.00 0.00 47 1009.3
20260508183614 76 190 1.0 4.0 0.00 0.00 0.00 44 1009.4
20260508183352 76 190 1.0 4.0 0.00 0.00 0.00 44 1009.4
20260508182842 75 190 1.0 4.0 0.00 0.00 0.00 29 1009.3
20260508182112 74 190 1.0 4.0 0.00 0.00 0.00 18 1009.3
20260508181613 74 190 1.0 4.0 0.00 0.00 0.00 23 1009.6
20260508181111 73 190 1.0 3.0 0.00 0.00 0.00 13 1009.6
20260508180843 73 190 1.0 4.0 0.00 0.00 0.00 7 1009.6
20260508180109 72 190 1.0 4.0 0.00 0.00 0.00 8 1009.6
20260508175611 72 190 1.0 4.0 0.00 0.00 0.00 1 1009.6
20260508175102 71 190 1.0 3.0 0.00 0.00 0.00 1 1009.4
20260508174106 71 190 1.0 3.0 0.00 0.00 0.00 1 1009.7
20260508173838 71 190 1.0 3.0 0.00 0.00 0.00 1 1009.7
20260508173102 70 190 1.0 3.0 0.00 0.00 0.00 1 1009.9
20260508172600 70 190 1.0 5.0 0.00 0.00 0.00 1 1010.0
20260508172103 70 190 2.0 6.0 0.00 0.00 0.00 1 1010.1
20260508171556 70 190 2.0 6.0 0.00 0.00 0.00 1 1010.0
20260508171055 69 190 2.0 6.0 0.00 0.00 0.00 1 1010.2
20260508170555 70 190 2.0 5.0 0.00 0.00 0.00 1 1010.5
20260508170057 69 190 1.0 3.0 0.00 0.00 0.00 1 1010.4
20260508165600 69 190 0.0 3.0 0.00 0.00 0.00 1 1010.5
20260508165054 69 190 0.0 1.0 0.00 0.00 0.00 1 1010.8
20260508164602 69 190 0.0 1.0 0.00 0.00 0.00 1 1010.8
20260508164320 68 190 1.0 3.0 0.00 0.00 0.00 1 1011.0
20260508163551 68 190 1.0 3.0 0.00 0.00 0.00 1 1011.0
20260508163051 69 190 1.0 5.0 0.00 0.00 0.00 1 1010.9
20260508162550 69 190 2.0 5.0 0.00 0.00 0.00 1 1010.9
20260508162053 68 190 2.0 5.0 0.00 0.00 0.00 1 1010.9
20260508161556 68 190 2.0 5.0 0.00 0.00 0.00 1 1010.7
20260508161045 68 190 2.0 6.0 0.00 0.00 0.00 1 1010.6
20260508160546 68 190 2.0 6.0 0.00 0.00 0.00 1 1010.5
20260508155547 68 190 2.0 5.0 0.00 0.00 0.00 1 1010.7
20260508155051 68 190 2.0 5.0 0.00 0.00 0.00 1 1010.6
20260508154547 67 190 2.0 6.0 0.00 0.00 0.00 1 1010.6
20260508153547 67 190 3.0 6.0 0.00 0.00 0.00 1 1010.7
20260508153050 67 190 3.0 7.0 0.00 0.00 0.00 1 1010.7
20260508152818 67 190 3.0 7.0 0.00 0.00 0.00 5 1010.7
20260508152045 67 190 2.0 5.0 0.00 0.00 0.00 7 1010.8
20260508151544 67 190 2.0 5.0 0.00 0.00 0.00 3 1010.8
20260508151045 67 190 2.0 5.0 0.00 0.00 0.00 1 1010.8
20260508150540 67 190 2.0 5.0 0.00 0.00 0.00 3 1011.0
20260508150040 67 190 1.0 4.0 0.00 0.00 0.00 3 1011.2
20260508145809 67 190 1.0 5.0 0.00 0.00 0.00 1 1011.2
20260508145035 67 190 1.0 5.0 0.00 0.00 0.00 1 1011.3
20260508144534 67 190 1.0 4.0 0.00 0.00 0.00 1 1011.3
20260508144033 66 190 1.0 4.0 0.00 0.00 0.00 1 1011.4
20260508143529 66 190 0.0 4.0 0.00 0.00 0.00 1 1011.4
20260508143031 66 190 1.0 3.0 0.00 0.00 0.00 1 1011.4
20260508142530 66 190 1.0 3.0 0.00 0.00 0.00 1 1011.4
20260508142032 66 190 1.0 3.0 0.00 0.00 0.00 1 1011.3
20260508141533 65 190 1.0 6.0 0.00 0.00 0.00 1 1011.4
20260508141028 65 190 1.0 6.0 0.00 0.00 0.00 1 1011.4
20260508140524 65 190 1.0 5.0 0.00 0.00 0.00 1 1011.4
20260508140257 65 190 1.0 5.0 0.00 0.00 0.00 1 1011.5
20260508135755 65 190 1.0 5.0 0.00 0.00 0.00 1 1011.3
20260508135022 65 190 0.0 4.0 0.00 0.00 0.00 1 1011.3
20260508134517 65 190 1.0 5.0 0.00 0.00 0.00 1 1011.4
20260508134245 64 190 1.0 5.0 0.00 0.00 0.00 1 1011.4
20260508133513 64 190 1.0 5.0 0.00 0.00 0.00 1 1011.7
20260508133012 65 190 1.0 5.0 0.00 0.00 0.00 1 1011.6
20260508132510 64 190 1.0 5.0 0.00 0.00 0.00 1 1011.5
20260508132007 64 190 2.0 5.0 0.00 0.00 0.00 1 1011.4
20260508131501 64 190 2.0 5.0 0.00 0.00 0.00 1 1011.5
20260508131000 64 190 1.0 4.0 0.00 0.00 0.00 1 1011.4
20260508130500 64 190 1.0 4.0 0.00 0.00 0.00 1 1011.3
20260508130228 64 190 0.0 4.0 0.00 0.00 0.00 1 1011.3
20260508125458 0 0.0 0.0 0.00 0.00 0.00 1011.3
20260508125005 0 0.0 0.0 0.00 0.00 0.00 1011.3
20260508124449 0 0.0 0.0 0.00 0.00 0.00 1011.2
20260508123901 0 0.0 0.0 0.00 0.00 0.00 1011.5
20260508123358 0 0.0 0.0 0.00 0.00 0.00 1011.5
20260508122857 0 0.0 0.0 0.00 0.00 0.00 1011.6
20260508122349 63 0.0 0.0 0.00 0.00 0.00 1 1011.6
20260508121753 63 190 0.0 0.0 0.00 0.00 0.00 1 1011.7
20260508121201 63 190 0.0 0.0 0.00 0.00 0.00 1 1011.7
20260508120623 63 190 0.0 0.0 0.00 0.00 0.00 1 1011.7
20260508120347 64 190 0.0 0.0 0.00 0.00 0.00 1 1011.8
20260508115613 64 190 0.0 0.0 0.00 0.00 0.00 1 1011.7
20260508115113 64 190 0.0 0.0 0.00 0.00 0.00 1 1011.8
20260508114615 63 190 0.0 0.0 0.00 0.00 0.00 1 1011.7
20260508114113 63 190 0.0 0.0 0.00 0.00 0.00 1 1011.5
20260508113611 63 190 0.0 0.0 0.00 0.00 0.00 1 1011.6
20260508113342 63 190 0.0 0.0 0.00 0.00 0.00 1 1011.8
20260508112605 63 190 0.0 0.0 0.00 0.00 0.00 1 1011.6
20260508112103 63 190 0.0 0.0 0.00 0.00 0.00 1 1011.2
20260508111600 63 190 0.0 0.0 0.00 0.00 0.00 1 1011.2
20260508111059 63 190 0.0 0.0 0.00 0.00 0.00 2 1011.4
20260508110558 64 190 0.0 0.0 0.00 0.00 0.00 8 1011.4
20260508110056 64 190 0.0 0.0 0.00 0.00 0.00 7 1011.5
20260508105556 64 190 0.0 0.0 0.00 0.00 0.00 10 1011.4
20260508105329 64 190 0.0 0.0 0.00 0.00 0.00 13 1010.8
20260508104554 64 190 0.0 0.0 0.00 0.00 0.00 14 1011.0
20260508104052 64 190 0.0 0.0 0.00 0.00 0.00 14 1011.0
20260508103552 64 190 0.0 0.0 0.00 0.00 0.00 13 1011.1
20260508103050 64 190 0.0 0.0 0.00 0.00 0.00 15 1011.4
20260508102550 64 190 0.0 0.0 0.00 0.00 0.00 19 1011.5
20260508102051 64 190 0.0 0.0 0.00 0.00 0.00 18 1011.3
20260508101549 64 190 0.0 0.0 0.00 0.00 0.00 16 1011.4
20260508101046 64 190 0.0 0.0 0.00 0.00 0.00 19 1011.2
20260508100546 64 190 0.0 0.0 0.00 0.00 0.00 19 1011.2
20260508100312 64 190 0.0 0.0 0.00 0.00 0.00 18 1011.3
20260508095541 64 190 0.0 0.0 0.00 0.00 0.00 19 1011.3
20260508095036 64 190 0.0 0.0 0.00 0.00 0.00 21 1011.4
20260508094804 64 190 0.0 0.0 0.00 0.00 0.00 23 1011.4
20260508094305 64 190 0.0 0.0 0.00 0.00 0.00 25 1011.3
20260508093532 64 190 0.0 0.0 0.00 0.00 0.00 24 1011.2
20260508093031 64 190 0.0 0.0 0.00 0.00 0.00 25 1011.2
20260508092531 64 190 0.0 0.0 0.00 0.00 0.00 25 1011.1
20260508092030 64 190 0.0 0.0 0.00 0.00 0.00 26 1011.3
20260508091530 64 190 0.0 0.0 0.00 0.00 0.00 24 1011.4
20260508091030 64 190 0.0 0.0 0.00 0.00 0.00 25 1011.4
20260508090522 64 190 0.0 0.0 0.00 0.00 0.00 27 1011.3
20260508090020 64 190 0.0 0.0 0.00 0.00 0.00 29 1011.3
20260508085519 64 190 0.0 0.0 0.00 0.00 0.00 30 1011.1
20260508085248 64 190 0.0 0.0 0.00 0.00 0.00 31 1011.0
20260508084515 64 190 0.0 0.0 0.00 0.00 0.00 30 1010.9
20260508084012 64 190 0.0 0.0 0.00 0.00 0.00 32 1010.9
20260508083518 64 190 0.0 0.0 0.00 0.00 0.00 32 1011.0
20260508083243 64 190 0.0 0.0 0.00 0.00 0.00 31 1011.1
20260508082510 64 190 0.0 0.0 0.00 0.00 0.00 31 1010.8
20260508082008 63 190 0.0 0.0 0.00 0.00 0.00 32 1010.8
20260508081508 63 190 0.0 0.0 0.00 0.00 0.00 31 1011.0
20260508081004 63 190 0.0 1.0 0.00 0.00 0.00 30 1011.0
20260508080734 63 190 0.0 2.0 0.00 0.00 0.00 30 1011.1
20260508075958 63 190 0.0 2.0 0.00 0.00 0.00 30 1011.2
20260508075729 63 190 0.0 2.0 0.00 0.00 0.00 29 1011.3
20260508075231 63 190 0.0 3.0 0.00 0.00 0.00 29 1011.3
20260508074459 63 190 0.0 3.0 0.00 0.00 0.00 28 1011.0
20260508073958 63 190 0.0 2.0 0.00 0.00 0.00 27 1011.7
20260508073732 63 190 0.0 2.0 0.00 0.00 0.00 30 1011.6
20260508073225 63 190 0.0 2.0 0.00 0.00 0.00 28 1011.8
20260508072453 63 190 0.0 2.0 0.00 0.00 0.00 29 1011.9
20260508071954 63 190 0.0 0.0 0.00 0.00 0.00 27 1011.8
20260508071453 63 190 0.0 2.0 0.00 0.00 0.00 29 1012.1
20260508070959 63 190 1.0 5.0 0.00 0.00 0.00 30 1012.1
20260508070454 63 190 2.0 5.0 0.00 0.00 0.00 31 1012.3
20260508070220 63 190 2.0 4.0 0.00 0.00 0.00 30 1012.7
20260508065449 63 190 1.0 4.0 0.00 0.00 0.00 28 1012.7
20260508064950 63 190 0.0 0.0 0.00 0.00 0.00 25 1012.4
20260508064449 63 190 0.0 0.0 0.00 0.00 0.00 25 1012.3
20260508063949 62 190 0.0 0.0 0.00 0.00 0.00 25 1012.2
20260508063450 62 190 0.0 0.0 0.00 0.00 0.00 25 1012.2
20260508062952 62 190 0.0 0.0 0.00 0.00 0.00 26 1012.2
20260508062452 62 190 0.0 0.0 0.00 0.00 0.00 31 1011.6
20260508062221 62 190 0.0 1.0 0.00 0.00 0.00 31 1011.7
20260508061449 62 190 0.0 2.0 0.00 0.00 0.00 31 1011.7
20260508060947 62 190 1.0 3.0 0.00 0.00 0.00 30 1011.5
20260508060447 62 190 1.0 4.0 0.00 0.00 0.00 29 1011.7
20260508055946 62 190 1.0 4.0 0.00 0.00 0.00 30 1011.6
20260508055443 62 190 1.0 4.0 0.00 0.00 0.00 31 1011.6
20260508055225 62 190 1.0 3.0 0.00 0.00 0.00 30 1011.7
20260508054448 62 190 0.0 2.0 0.00 0.00 0.00 30 1011.8
20260508053944 62 190 0.0 0.0 0.00 0.00 0.00 30 1012.1
20260508053714 62 190 0.0 0.0 0.00 0.00 0.00 33 1012.2
20260508052941 62 190 0.0 0.0 0.00 0.00 0.00 35 1012.1
20260508052435 63 190 0.0 0.0 0.00 0.00 0.00 36 1011.9
20260508051932 63 190 1.0 4.0 0.00 0.00 0.00 39 1011.7
20260508051432 63 190 2.0 5.0 0.00 0.00 0.00 40 1011.7
20260508050926 63 190 3.0 6.0 0.00 0.00 0.00 40 1012.3
20260508050425 63 190 2.0 6.0 0.00 0.00 0.00 39 1012.5
20260508045922 63 190 2.0 4.0 0.00 0.00 0.00 41 1012.3
20260508045423 63 190 2.0 4.0 0.00 0.00 0.00 41 1012.3
20260508044925 63 190 1.0 4.0 0.00 0.00 0.00 42 1012.4
20260508044431 63 190 0.0 3.0 0.00 0.00 0.00 46 1012.4
20260508043919 63 190 0.0 0.0 0.00 0.00 0.00 48 1012.4
20260508043420 63 190 0.0 0.0 0.00 0.00 0.00 52 1012.4
20260508042421 64 190 0.0 0.0 0.00 0.00 0.00 55 1012.4
20260508041920 64 190 0.0 0.0 0.00 0.00 0.00 57 1012.4
20260508041414 64 190 0.0 0.0 0.00 0.00 0.00 58 1012.6
20260508040913 64 190 0.0 0.0 0.00 0.00 0.00 61 1012.4
20260508040412 64 190 0.0 0.0 0.00 0.00 0.00 62 1012.4
20260508035907 64 190 0.0 3.0 0.00 0.00 0.00 62 1012.3
20260508035410 64 190 1.0 4.0 0.00 0.00 0.00 63 1011.9
20260508035141 64 190 0.0 4.0 0.00 0.00 0.00 63 1011.9
20260508034405 64 190 0.0 0.0 0.00 0.00 0.00 63 1012.1
20260508033905 64 190 0.0 2.0 0.00 0.00 0.00 64 1012.2
20260508033401 64 190 1.0 5.0 0.00 0.00 0.00 64 1012.1
20260508032902 64 190 2.0 5.0 0.00 0.00 0.00 65 1011.8
20260508032402 64 190 2.0 5.0 0.00 0.00 0.00 65 1011.7
20260508031900 64 190 1.0 4.0 0.00 0.00 0.00 65 1011.5
20260508031359 64 190 1.0 4.0 0.00 0.00 0.00 65 1011.4
20260508030901 64 190 2.0 8.0 0.00 0.00 0.00 66 1011.7
20260508030355 64 190 3.0 8.0 0.00 0.00 0.00 66 1011.6
20260508025922 64 190 2.0 6.0 0.00 0.00 0.00 66 1011.5
20260508024902 64 190 2.0 7.0 0.00 0.00 0.00 66 1011.6
20260508024633 64 190 2.0 4.0 0.00 0.00 0.00 65 1011.7
20260508023856 64 190 2.0 5.0 0.00 0.00 0.00 65 1011.9
20260508023402 64 190 1.0 5.0 0.00 0.00 0.00 66 1011.7
20260508022843 65 190 0.0 4.0 0.00 0.00 0.00 66 1011.4
20260508022353 65 190 0.0 0.0 0.00 0.00 0.00 65 1011.5
20260508021848 65 190 0.0 0.0 0.00 0.00 0.00 65 1011.6
20260508020845 65 190 0.0 1.0 0.00 0.00 0.00 65 1011.4
20260508020615 65 190 0.0 2.0 0.00 0.00 0.00 64 1011.8
20260508015843 65 190 0.0 2.0 0.00 0.00 0.00 64 1012.1
20260508015343 65 190 0.0 2.0 0.00 0.00 0.00 65 1012.2
20260508014845 65 190 0.0 3.0 0.00 0.00 0.00 65 1012.1
20260508014348 65 190 0.0 3.0 0.00 0.00 0.00 65 1012.1
20260508013847 65 190 1.0 4.0 0.00 0.00 0.00 64 1012.3
20260508013343 65 190 1.0 4.0 0.00 0.00 0.00 65 1012.4
20260508012845 65 190 1.0 4.0 0.00 0.00 0.00 65 1012.6
20260508012343 65 190 0.0 3.0 0.00 0.00 0.00 66 1012.6
20260508012117 66 190 0.0 0.0 0.00 0.00 0.00 67 1012.2
20260508011342 66 190 0.0 2.0 0.00 0.00 0.00 68 1011.9
20260508010837 66 190 0.0 2.0 0.00 0.00 0.00 68 1012.1
20260508010342 66 190 0.0 3.0 0.00 0.00 0.00 68 1012.2